| time (UTC) | temp C | wind direction | speed KPH | gust KPH | rain 1hr cm | rain 24hr cm | rain mn cm | humidity % | barometer mb |
| 20260509183507 | 24 | 211 | 12.9 | 17.7 | 0.00 | 0.00 | 0.00 | 72 | 1012.3 |
| 20260509183013 | 25 | 174 | 9.7 | 17.7 | 0.00 | 0.00 | 0.00 | 71 | 1012.2 |
| 20260509182510 | 24 | 211 | 6.4 | 16.1 | 0.00 | 0.00 | 0.00 | 70 | 1012.3 |
| 20260509182007 | 24 | 242 | 6.4 | 16.1 | 0.00 | 0.00 | 0.00 | 71 | 1012.4 |
| 20260509181527 | 25 | 247 | 8.0 | 14.5 | 0.00 | 0.00 | 0.00 | 68 | 1012.2 |
| 20260509181010 | 25 | 186 | 4.8 | 12.9 | 0.00 | 0.00 | 0.00 | 70 | 1012.3 |
| 20260509180507 | 25 | 162 | 4.8 | 11.3 | 0.00 | 0.00 | 0.00 | 71 | 1012.3 |
| 20260509180024 | 25 | 198 | 4.8 | 11.3 | 0.00 | 0.00 | 0.00 | 68 | 1012.3 |
| 20260509175511 | 25 | 231 | 3.2 | 11.3 | 0.00 | 0.00 | 0.00 | 69 | 1012.4 |
| 20260509175010 | 25 | 177 | 3.2 | 11.3 | 0.00 | 0.00 | 0.00 | 69 | 1012.5 |
| 20260509174524 | 25 | 136 | 4.8 | 12.9 | 0.00 | 0.00 | 0.00 | 68 | 1012.5 |
| 20260509174007 | 25 | 182 | 3.2 | 12.9 | 0.00 | 0.00 | 0.00 | 68 | 1012.6 |
| 20260509173508 | 25 | 158 | 6.4 | 16.1 | 0.00 | 0.00 | 0.00 | 73 | 1012.6 |
| 20260509173021 | 24 | 221 | 4.8 | 16.1 | 0.00 | 0.00 | 0.00 | 71 | 1012.7 |
| 20260509172504 | 24 | 223 | 3.2 | 14.5 | 0.00 | 0.00 | 0.00 | 72 | 1012.7 |
| 20260509172008 | 24 | 234 | 4.8 | 14.5 | 0.00 | 0.00 | 0.00 | 70 | 1012.6 |
| 20260509171516 | 24 | 277 | 8.0 | 12.9 | 0.00 | 0.00 | 0.00 | 71 | 1012.8 |
| 20260509171004 | 24 | 269 | 3.2 | 16.1 | 0.00 | 0.00 | 0.00 | 72 | 1012.8 |
| 20260509170508 | 24 | 192 | 4.8 | 16.1 | 0.00 | 0.00 | 0.00 | 72 | 1012.8 |
| 20260509170014 | 24 | 213 | 3.2 | 11.3 | 0.00 | 0.00 | 0.00 | 73 | 1012.8 |
| 20260509165511 | 24 | 191 | 1.6 | 11.3 | 0.00 | 0.00 | 0.00 | 70 | 1012.7 |
| 20260509165008 | 24 | 193 | 3.2 | 9.7 | 0.00 | 0.00 | 0.00 | 74 | 1012.6 |
| 20260509164512 | 23 | 213 | 3.2 | 9.7 | 0.00 | 0.00 | 0.00 | 71 | 1012.6 |
| 20260509164012 | 23 | 236 | 3.2 | 9.7 | 0.00 | 0.00 | 0.00 | 71 | 1012.5 |
| 20260509163510 | 23 | 212 | 1.6 | 9.7 | 0.00 | 0.00 | 0.00 | 72 | 1012.6 |
| 20260509163035 | 23 | 247 | 6.4 | 9.7 | 0.00 | 0.00 | 0.00 | 72 | 1012.7 |
| 20260509162511 | 23 | 215 | 4.8 | 9.7 | 0.00 | 0.00 | 0.00 | 72 | 1012.8 |
| 20260509162008 | 23 | 230 | 4.8 | 9.7 | 0.00 | 0.00 | 0.00 | 75 | 1012.8 |
| 20260509161523 | 23 | 242 | 4.8 | 9.7 | 0.00 | 0.00 | 0.00 | 74 | 1012.8 |
| 20260509160504 | 23 | 227 | 1.6 | 9.7 | 0.00 | 0.00 | 0.00 | 73 | 1012.5 |
| 20260509160024 | 23 | 227 | 4.8 | 11.3 | 0.00 | 0.00 | 0.00 | 74 | 1012.6 |
| 20260509155508 | 22 | 232 | 1.6 | 11.3 | 0.00 | 0.00 | 0.00 | 76 | 1012.6 |
| 20260509155010 | 22 | 267 | 4.8 | 11.3 | 0.00 | 0.00 | 0.00 | 75 | 1012.8 |
| 20260509154524 | 22 | 219 | 3.2 | 9.7 | 0.00 | 0.00 | 0.00 | 74 | 1012.9 |
| 20260509154006 | 22 | 119 | 3.2 | 8.0 | 0.00 | 0.00 | 0.00 | 76 | 1012.9 |
| 20260509153511 | 22 | 279 | 1.6 | 11.3 | 0.00 | 0.00 | 0.00 | 75 | 1012.8 |
| 20260509153022 | 22 | 212 | 1.6 | 12.9 | 0.00 | 0.00 | 0.00 | 76 | 1012.8 |
| 20260509152510 | 22 | 274 | 4.8 | 12.9 | 0.00 | 0.00 | 0.00 | 79 | 1012.7 |
| 20260509152014 | 21 | 290 | 3.2 | 12.9 | 0.00 | 0.00 | 0.00 | 80 | 1012.7 |
| 20260509151519 | 21 | 211 | 6.4 | 12.9 | 0.00 | 0.00 | 0.00 | 79 | 1012.7 |
| 20260509151008 | 21 | 213 | 4.8 | 12.9 | 0.00 | 0.00 | 0.00 | 80 | 1012.7 |
| 20260509150509 | 21 | 207 | 4.8 | 11.3 | 0.00 | 0.00 | 0.00 | 80 | 1012.7 |
| 20260509150030 | 21 | 223 | 6.4 | 9.7 | 0.00 | 0.00 | 0.00 | 82 | 1012.7 |
| 20260509145509 | 20 | 211 | 0.0 | 6.4 | 0.00 | 0.00 | 0.00 | 82 | 1012.7 |
| 20260509145012 | 20 | 276 | 1.6 | 9.7 | 0.00 | 0.00 | 0.00 | 83 | 1012.7 |
| 20260509144528 | 20 | 294 | 1.6 | 9.7 | 0.00 | 0.00 | 0.00 | 83 | 1012.6 |
| 20260509144010 | 20 | 238 | 3.2 | 8.0 | 0.00 | 0.00 | 0.00 | 84 | 1012.6 |
| 20260509143506 | 20 | 202 | 3.2 | 9.7 | 0.00 | 0.00 | 0.00 | 85 | 1012.6 |
| 20260509143029 | 19 | 254 | 0.0 | 9.7 | 0.00 | 0.00 | 0.00 | 87 | 1012.6 |
| 20260509142509 | 18 | 267 | 1.6 | 12.9 | 0.00 | 0.00 | 0.00 | 88 | 1012.7 |
| 20260509142010 | 18 | 267 | 3.2 | 12.9 | 0.00 | 0.00 | 0.00 | 88 | 1012.7 |
| 20260509141529 | 18 | 333 | 1.6 | 12.9 | 0.00 | 0.00 | 0.00 | 89 | 1012.8 |
| 20260509141009 | 18 | 271 | 3.2 | 12.9 | 0.00 | 0.00 | 0.00 | 90 | 1012.8 |
| 20260509140508 | 18 | 283 | 0.0 | 9.7 | 0.00 | 0.00 | 0.00 | 91 | 1012.7 |
| 20260509140022 | 18 | 274 | 3.2 | 12.9 | 0.00 | 0.00 | 0.00 | 91 | 1012.7 |
| 20260509135507 | 17 | 280 | 4.8 | 12.9 | 0.00 | 0.00 | 0.00 | 91 | 1012.7 |
| 20260509135012 | 17 | 269 | 3.2 | 9.7 | 0.00 | 0.00 | 0.00 | 92 | 1012.7 |
| 20260509134522 | 17 | 244 | 0.0 | 0.0 | 0.00 | 0.00 | 0.00 | 92 | 1012.6 |
| 20260509134012 | 17 | 238 | 0.0 | 0.0 | 0.00 | 0.00 | 0.00 | 92 | 1012.5 |
| 20260509133509 | 17 | 237 | 0.0 | 0.0 | 0.00 | 0.00 | 0.00 | 92 | 1012.4 |
| 20260509133018 | 17 | 237 | 0.0 | 1.6 | 0.00 | 0.00 | 0.00 | 92 | 1012.4 |
| 20260509132513 | 17 | 237 | 0.0 | 1.6 | 0.00 | 0.00 | 0.00 | 92 | 1012.5 |
| 20260509132011 | 17 | 237 | 0.0 | 1.6 | 0.00 | 0.00 | 0.00 | 92 | 1012.3 |
| 20260509131522 | 17 | 130 | 0.0 | 1.6 | 0.00 | 0.00 | 0.00 | 92 | 1012.2 |
| 20260509131015 | 16 | 160 | 0.0 | 0.0 | 0.00 | 0.00 | 0.00 | 92 | 1012.2 |
| 20260509130510 | 16 | 160 | 0.0 | 0.0 | 0.00 | 0.00 | 0.00 | 92 | 1012.2 |
| 20260509130027 | 16 | 157 | 0.0 | 1.6 | 0.00 | 0.00 | 0.00 | 92 | 1012.1 |
| 20260509125508 | 16 | 157 | 0.0 | 1.6 | 0.00 | 0.00 | 0.00 | 92 | 1012.2 |
| 20260509125009 | 16 | 157 | 0.0 | 1.6 | 0.00 | 0.00 | 0.00 | 92 | 1012.2 |
| 20260509124524 | 15 | 157 | 0.0 | 0.0 | 0.00 | 0.00 | 0.00 | 91 | 1012.3 |
| 20260509124010 | 15 | 157 | 0.0 | 0.0 | 0.00 | 0.00 | 0.00 | 91 | 1012.3 |
| 20260509123511 | 15 | 157 | 0.0 | 0.0 | 0.00 | 0.00 | 0.00 | 92 | 1012.3 |
| 20260509123025 | 15 | 157 | 0.0 | 0.0 | 0.00 | 0.00 | 0.00 | 92 | 1012.2 |
| 20260509122511 | 15 | 157 | 0.0 | 0.0 | 0.00 | 0.00 | 0.00 | 92 | 1012.3 |
| 20260509122010 | 15 | 157 | 0.0 | 0.0 | 0.00 | 0.00 | 0.00 | 92 | 1012.4 |
| 20260509121528 | 15 | 178 | 0.0 | 0.0 | 0.00 | 0.00 | 0.00 | 91 | 1012.4 |
| 20260509121007 | 15 | 178 | 0.0 | 0.0 | 0.00 | 0.00 | 0.00 | 91 | 1012.4 |
| 20260509120507 | 15 | 178 | 0.0 | 0.0 | 0.00 | 0.00 | 0.00 | 91 | 1012.2 |
| 20260509120024 | 15 | 178 | 0.0 | 0.0 | 0.00 | 0.00 | 0.00 | 92 | 1012.1 |
| 20260509115513 | 15 | 175 | 0.0 | 0.0 | 0.00 | 0.00 | 0.00 | 92 | 1011.9 |
| 20260509115009 | 15 | 175 | 0.0 | 0.0 | 0.00 | 0.00 | 0.00 | 91 | 1011.9 |
| 20260509114522 | 15 | 175 | 0.0 | 0.0 | 0.00 | 0.00 | 0.00 | 91 | 1011.9 |
| 20260509114009 | 15 | 175 | 0.0 | 0.0 | 0.00 | 0.00 | 0.00 | 91 | 1012.1 |
| 20260509113510 | 15 | 175 | 0.0 | 0.0 | 0.00 | 0.00 | 0.00 | 91 | 1012.1 |
| 20260509113028 | 15 | 175 | 0.0 | 0.0 | 0.00 | 0.00 | 0.00 | 91 | 1012.0 |
| 20260509112510 | 14 | 195 | 0.0 | 0.0 | 0.00 | 0.00 | 0.00 | 91 | 1012.0 |
| 20260509112012 | 14 | 195 | 0.0 | 0.0 | 0.00 | 0.00 | 0.00 | 91 | 1012.1 |
| 20260509111526 | 14 | 195 | 0.0 | 0.0 | 0.00 | 0.00 | 0.00 | 91 | 1012.1 |
| 20260509111009 | 14 | 195 | 0.0 | 0.0 | 0.00 | 0.00 | 0.00 | 91 | 1012.2 |
| 20260509110507 | 14 | 195 | 0.0 | 0.0 | 0.00 | 0.00 | 0.00 | 91 | 1012.1 |
| 20260509110028 | 14 | 195 | 0.0 | 0.0 | 0.00 | 0.00 | 0.00 | 91 | 1012.1 |
| 20260509105507 | 14 | 195 | 0.0 | 0.0 | 0.00 | 0.00 | 0.00 | 91 | 1012.0 |
| 20260509105011 | 14 | 195 | 0.0 | 0.0 | 0.00 | 0.00 | 0.00 | 91 | 1011.9 |
| 20260509104529 | 13 | 195 | 0.0 | 0.0 | 0.00 | 0.00 | 0.00 | 91 | 1011.6 |
| 20260509104008 | 13 | 195 | 0.0 | 0.0 | 0.00 | 0.00 | 0.00 | 91 | 1011.5 |
| 20260509103509 | 13 | 195 | 0.0 | 0.0 | 0.00 | 0.00 | 0.00 | 91 | 1011.3 |
| 20260509103025 | 13 | 195 | 0.0 | 0.0 | 0.00 | 0.00 | 0.00 | 90 | 1011.2 |
| 20260509102509 | 13 | 195 | 0.0 | 0.0 | 0.00 | 0.00 | 0.00 | 90 | 1011.1 |
| 20260509102011 | 13 | 195 | 0.0 | 0.0 | 0.00 | 0.00 | 0.00 | 91 | 1011.1 |
| 20260509101524 | 13 | 195 | 0.0 | 0.0 | 0.00 | 0.00 | 0.00 | 90 | 1011.0 |
| 20260509101008 | 13 | 195 | 0.0 | 0.0 | 0.00 | 0.00 | 0.00 | 91 | 1011.0 |
| 20260509100510 | 13 | 195 | 0.0 | 0.0 | 0.00 | 0.00 | 0.00 | 91 | 1011.0 |
| 20260509100024 | 13 | 195 | 0.0 | 0.0 | 0.00 | 0.00 | 0.00 | 91 | 1010.9 |
| 20260509095507 | 13 | 195 | 0.0 | 0.0 | 0.00 | 0.00 | 0.00 | 91 | 1010.9 |
| 20260509095007 | 13 | 195 | 0.0 | 0.0 | 0.00 | 0.00 | 0.00 | 91 | 1010.8 |
| 20260509094528 | 13 | 195 | 0.0 | 0.0 | 0.00 | 0.00 | 0.00 | 91 | 1010.7 |
| 20260509094006 | 13 | 195 | 0.0 | 0.0 | 0.00 | 0.00 | 0.00 | 91 | 1010.5 |
| 20260509093508 | 13 | 195 | 0.0 | 0.0 | 0.00 | 0.00 | 0.00 | 91 | 1010.3 |
| 20260509093027 | 13 | 195 | 0.0 | 0.0 | 0.00 | 0.00 | 0.00 | 91 | 1010.2 |
| 20260509092510 | 13 | 195 | 0.0 | 0.0 | 0.00 | 0.00 | 0.00 | 92 | 1010.2 |
| 20260509092010 | 12 | 195 | 0.0 | 0.0 | 0.00 | 0.00 | 0.00 | 91 | 1010.2 |
| 20260509091533 | 12 | 195 | 0.0 | 1.6 | 0.00 | 0.00 | 0.00 | 91 | 1010.2 |
| 20260509091009 | 12 | 195 | 0.0 | 1.6 | 0.00 | 0.00 | 0.00 | 90 | 1010.3 |
| 20260509090509 | 12 | 195 | 0.0 | 1.6 | 0.00 | 0.00 | 0.00 | 90 | 1010.3 |
| 20260509090028 | 12 | 195 | 0.0 | 0.0 | 0.00 | 0.00 | 0.00 | 90 | 1010.5 |
| 20260509085506 | 12 | 195 | 0.0 | 0.0 | 0.00 | 0.00 | 0.00 | 90 | 1010.5 |
| 20260509085009 | 12 | 195 | 0.0 | 0.0 | 0.00 | 0.00 | 0.00 | 91 | 1010.5 |
| 20260509084529 | 12 | 195 | 0.0 | 0.0 | 0.00 | 0.00 | 0.00 | 91 | 1010.6 |
| 20260509084008 | 12 | 195 | 0.0 | 0.0 | 0.00 | 0.00 | 0.00 | 91 | 1010.7 |
| 20260509083508 | 11 | 195 | 0.0 | 0.0 | 0.00 | 0.00 | 0.00 | 90 | 1010.7 |
| 20260509083026 | 11 | 195 | 0.0 | 0.0 | 0.00 | 0.00 | 0.00 | 90 | 1010.7 |
| 20260509082507 | 11 | 195 | 0.0 | 0.0 | 0.00 | 0.00 | 0.00 | 89 | 1010.7 |
| 20260509082011 | 11 | 195 | 0.0 | 0.0 | 0.00 | 0.00 | 0.00 | 89 | 1010.8 |
| 20260509081524 | 11 | 195 | 0.0 | 0.0 | 0.00 | 0.00 | 0.00 | 89 | 1010.8 |
| 20260509081010 | 11 | 195 | 0.0 | 0.0 | 0.00 | 0.00 | 0.00 | 89 | 1010.6 |
| 20260509080504 | 11 | 195 | 0.0 | 0.0 | 0.00 | 0.00 | 0.00 | 89 | 1010.7 |
| 20260509080004 | 12 | 195 | 0.0 | 0.0 | 0.00 | 0.00 | 0.00 | 90 | 1010.8 |
| 20260509075505 | 11 | 195 | 0.0 | 0.0 | 0.00 | 0.00 | 0.00 | 90 | 1010.7 |
| 20260509075006 | 11 | 195 | 0.0 | 0.0 | 0.00 | 0.00 | 0.00 | 90 | 1010.7 |
| 20260509074518 | 11 | 195 | 0.0 | 1.6 | 0.00 | 0.00 | 0.00 | 89 | 1010.6 |
| 20260509074006 | 11 | 195 | 0.0 | 1.6 | 0.00 | 0.00 | 0.00 | 89 | 1010.7 |
| 20260509073503 | 11 | 195 | 0.0 | 1.6 | 0.00 | 0.00 | 0.00 | 89 | 1010.9 |
| 20260509073035 | 11 | 195 | 0.0 | 1.6 | 0.00 | 0.00 | 0.00 | 89 | 1011.1 |
| 20260509072504 | 12 | 195 | 0.0 | 1.6 | 0.00 | 0.00 | 0.00 | 89 | 1011.1 |
| 20260509072009 | 12 | 195 | 0.0 | 1.6 | 0.00 | 0.00 | 0.00 | 89 | 1011.2 |
| 20260509071514 | 12 | 195 | 0.0 | 1.6 | 0.00 | 0.00 | 0.00 | 89 | 1011.2 |
| 20260509071005 | 12 | 195 | 0.0 | 0.0 | 0.00 | 0.00 | 0.00 | 89 | 1011.2 |
| 20260509070511 | 12 | 195 | 0.0 | 0.0 | 0.00 | 0.00 | 0.00 | 89 | 1011.3 |
| 20260509070011 | 12 | 195 | 0.0 | 1.6 | 0.00 | 0.00 | 0.00 | 89 | 1011.4 |
| 20260509065507 | 12 | 195 | 0.0 | 1.6 | 0.00 | 0.00 | 0.00 | 89 | 1011.4 |
| 20260509065008 | 12 | 195 | 0.0 | 0.0 | 0.00 | 0.00 | 0.00 | 88 | 1011.5 |
| 20260509064508 | 12 | 195 | 0.0 | 0.0 | 0.00 | 0.00 | 0.00 | 88 | 1011.7 |
| 20260509064008 | 12 | 195 | 0.0 | 0.0 | 0.00 | 0.00 | 0.00 | 89 | 1011.8 |
| 20260509063506 | 12 | 195 | 0.0 | 0.0 | 0.00 | 0.00 | 0.00 | 88 | 1011.7 |
| 20260509063008 | 12 | 195 | 0.0 | 0.0 | 0.00 | 0.00 | 0.00 | 88 | 1011.7 |
| 20260509062513 | 12 | 195 | 0.0 | 0.0 | 0.00 | 0.00 | 0.00 | 88 | 1011.8 |
| 20260509062006 | 12 | 195 | 0.0 | 0.0 | 0.00 | 0.00 | 0.00 | 89 | 1011.9 |
| 20260509061524 | 12 | 195 | 0.0 | 0.0 | 0.00 | 0.00 | 0.00 | 89 | 1012.0 |
| 20260509061011 | 12 | 195 | 0.0 | 1.6 | 0.00 | 0.00 | 0.00 | 89 | 1012.1 |
| 20260509060508 | 12 | 195 | 0.0 | 1.6 | 0.00 | 0.00 | 0.00 | 89 | 1012.3 |
| 20260509060028 | 12 | 195 | 0.0 | 1.6 | 0.00 | 0.00 | 0.00 | 89 | 1012.2 |
| 20260509055508 | 12 | 195 | 0.0 | 0.0 | 0.00 | 0.00 | 0.00 | 88 | 1012.1 |
| 20260509055005 | 12 | 195 | 0.0 | 0.0 | 0.00 | 0.00 | 0.00 | 88 | 1012.0 |
| 20260509054529 | 12 | 195 | 0.0 | 0.0 | 0.00 | 0.00 | 0.00 | 88 | 1011.9 |
| 20260509054008 | 12 | 195 | 0.0 | 0.0 | 0.00 | 0.00 | 0.00 | 89 | 1012.2 |
| 20260509053511 | 12 | 195 | 0.0 | 0.0 | 0.00 | 0.00 | 0.00 | 89 | 1012.5 |
| 20260509053026 | 12 | 195 | 0.0 | 0.0 | 0.00 | 0.00 | 0.00 | 88 | 1012.7 |
| 20260509052506 | 12 | 195 | 0.0 | 1.6 | 0.00 | 0.00 | 0.00 | 88 | 1012.7 |
| 20260509052010 | 12 | 195 | 0.0 | 3.2 | 0.00 | 0.00 | 0.00 | 88 | 1012.9 |
| 20260509051512 | 12 | 195 | 0.0 | 3.2 | 0.00 | 0.00 | 0.00 | 87 | 1013.0 |
| 20260509051009 | 12 | 195 | 0.0 | 3.2 | 0.00 | 0.00 | 0.00 | 87 | 1012.9 |
| 20260509050514 | 12 | 195 | 0.0 | 0.0 | 0.00 | 0.00 | 0.00 | 87 | 1012.8 |
| 20260509050012 | 12 | 195 | 0.0 | 0.0 | 0.00 | 0.00 | 0.00 | 87 | 1012.8 |
| 20260509045507 | 12 | 195 | 0.0 | 0.0 | 0.00 | 0.00 | 0.00 | 87 | 1012.8 |
| 20260509045007 | 13 | 195 | 0.0 | 0.0 | 0.00 | 0.00 | 0.00 | 87 | 1012.6 |
| 20260509044513 | 13 | 196 | 0.0 | 0.0 | 0.00 | 0.00 | 0.00 | 87 | 1012.3 |
| 20260509044007 | 13 | 195 | 0.0 | 0.0 | 0.00 | 0.00 | 0.00 | 87 | 1012.1 |
| 20260509043507 | 13 | 195 | 0.0 | 0.0 | 0.00 | 0.00 | 0.00 | 87 | 1012.1 |
| 20260509043040 | 13 | 195 | 0.0 | 0.0 | 0.00 | 0.00 | 0.00 | 87 | 1012.1 |
| 20260509042508 | 13 | 195 | 0.0 | 0.0 | 0.00 | 0.00 | 0.00 | 87 | 1012.1 |
| 20260509042007 | 13 | 195 | 0.0 | 0.0 | 0.00 | 0.00 | 0.00 | 87 | 1012.0 |
| 20260509041522 | 13 | 195 | 0.0 | 4.8 | 0.00 | 0.00 | 0.00 | 87 | 1012.1 |
| 20260509041011 | 13 | 195 | 0.0 | 4.8 | 0.00 | 0.00 | 0.00 | 87 | 1012.1 |
| 20260509040503 | 13 | 195 | 1.6 | 4.8 | 0.00 | 0.00 | 0.00 | 87 | 1012.1 |
| 20260509040022 | 13 | 196 | 0.0 | 1.6 | 0.00 | 0.00 | 0.00 | 87 | 1012.2 |
| 20260509035509 | 13 | 196 | 0.0 | 1.6 | 0.00 | 0.00 | 0.00 | 87 | 1012.2 |
| 20260509035012 | 13 | 196 | 0.0 | 0.0 | 0.00 | 0.00 | 0.00 | 86 | 1012.3 |
| 20260509034532 | 13 | 196 | 0.0 | 0.0 | 0.00 | 0.00 | 0.00 | 87 | 1012.4 |
| 20260509034005 | 13 | 196 | 0.0 | 0.0 | 0.00 | 0.00 | 0.00 | 86 | 1012.5 |
| 20260509033507 | 13 | 196 | 0.0 | 0.0 | 0.00 | 0.00 | 0.00 | 86 | 1012.6 |
| 20260509033016 | 13 | 196 | 0.0 | 0.0 | 0.00 | 0.00 | 0.00 | 86 | 1012.6 |
| 20260509032514 | 13 | 196 | 0.0 | 0.0 | 0.00 | 0.00 | 0.00 | 86 | 1012.6 |
| 20260509032013 | 13 | 196 | 0.0 | 0.0 | 0.00 | 0.00 | 0.00 | 85 | 1012.6 |
| 20260509031513 | 13 | 196 | 0.0 | 0.0 | 0.00 | 0.00 | 0.00 | 85 | 1012.5 |
| 20260509031012 | 13 | 196 | 0.0 | 0.0 | 0.00 | 0.00 | 0.00 | 85 | 1012.4 |
| 20260509030511 | 13 | 196 | 0.0 | 0.0 | 0.00 | 0.00 | 0.00 | 84 | 1012.4 |
| 20260509030007 | 13 | 196 | 0.0 | 0.0 | 0.00 | 0.00 | 0.00 | 84 | 1012.4 |
| 20260509025510 | 13 | 196 | 0.0 | 0.0 | 0.00 | 0.00 | 0.00 | 84 | 1012.5 |
| 20260509025013 | 14 | 196 | 0.0 | 0.0 | 0.00 | 0.00 | 0.00 | 84 | 1012.4 |
| 20260509024526 | 14 | 196 | 0.0 | 0.0 | 0.00 | 0.00 | 0.00 | 84 | 1012.2 |
| 20260509024011 | 14 | 196 | 0.0 | 0.0 | 0.00 | 0.00 | 0.00 | 84 | 1012.2 |
| 20260509023503 | 14 | 196 | 0.0 | 0.0 | 0.00 | 0.00 | 0.00 | 83 | 1012.2 |
| 20260509023027 | 15 | 196 | 0.0 | 0.0 | 0.00 | 0.00 | 0.00 | 83 | 1012.2 |
| 20260509022506 | 15 | 196 | 0.0 | 0.0 | 0.00 | 0.00 | 0.00 | 82 | 1012.2 |
| 20260509022011 | 15 | 196 | 0.0 | 0.0 | 0.00 | 0.00 | 0.00 | 82 | 1012.2 |
| 20260509021523 | 15 | 196 | 0.0 | 0.0 | 0.00 | 0.00 | 0.00 | 83 | 1012.2 |
| 20260509021010 | 15 | 196 | 0.0 | 0.0 | 0.00 | 0.00 | 0.00 | 82 | 1012.2 |
| 20260509020505 | 15 | 196 | 0.0 | 1.6 | 0.00 | 0.00 | 0.00 | 82 | 1012.1 |
| 20260509020006 | 15 | 196 | 0.0 | 1.6 | 0.00 | 0.00 | 0.00 | 81 | 1012.1 |
| 20260509015508 | 15 | 196 | 0.0 | 0.0 | 0.00 | 0.00 | 0.00 | 81 | 1012.1 |
| 20260509015005 | 15 | 196 | 0.0 | 0.0 | 0.00 | 0.00 | 0.00 | 81 | 1012.1 |
| 20260509014506 | 16 | 196 | 0.0 | 4.8 | 0.00 | 0.00 | 0.00 | 81 | 1012.0 |
| 20260509014005 | 16 | 196 | 0.0 | 4.8 | 0.00 | 0.00 | 0.00 | 80 | 1011.9 |
| 20260509013507 | 16 | 196 | 0.0 | 4.8 | 0.00 | 0.00 | 0.00 | 80 | 1011.8 |
| 20260509013013 | 16 | 196 | 0.0 | 6.4 | 0.00 | 0.00 | 0.00 | 80 | 1011.9 |
| 20260509012504 | 16 | 196 | 0.0 | 6.4 | 0.00 | 0.00 | 0.00 | 79 | 1011.9 |
| 20260509012006 | 16 | 196 | 1.6 | 4.8 | 0.00 | 0.00 | 0.00 | 79 | 1011.8 |
| 20260509011508 | 17 | 196 | 1.6 | 4.8 | 0.00 | 0.00 | 0.00 | 78 | 1011.9 |
| 20260509011002 | 17 | 198 | 0.0 | 3.2 | 0.00 | 0.00 | 0.00 | 77 | 1012.1 |
| 20260509010504 | 17 | 198 | 0.0 | 0.0 | 0.00 | 0.00 | 0.00 | 77 | 1012.2 |
| 20260509010007 | 17 | 198 | 0.0 | 3.2 | 0.00 | 0.00 | 0.00 | 76 | 1012.2 |
| 20260509005503 | 17 | 198 | 0.0 | 3.2 | 0.00 | 0.00 | 0.00 | 75 | 1012.1 |
| 20260509005003 | 18 | 198 | 0.0 | 4.8 | 0.00 | 0.00 | 0.00 | 74 | 1012.2 |
| 20260509004517 | 18 | 198 | 0.0 | 9.7 | 0.00 | 0.00 | 0.00 | 73 | 1012.2 |
| 20260509004007 | 18 | 227 | 1.6 | 9.7 | 0.00 | 0.00 | 0.00 | 73 | 1012.2 |
| 20260509003504 | 18 | 162 | 4.8 | 8.0 | 0.00 | 0.00 | 0.00 | 72 | 1012.2 |
| 20260509003006 | 18 | 163 | 0.0 | 9.7 | 0.00 | 0.00 | 0.00 | 71 | 1012.1 |
| 20260509002506 | 19 | 161 | 1.6 | 9.7 | 0.00 | 0.00 | 0.00 | 71 | 1011.9 |
| 20260509002006 | 19 | 167 | 3.2 | 9.7 | 0.00 | 0.00 | 0.00 | 71 | 1011.9 |
| 20260509001510 | 19 | 157 | 3.2 | 8.0 | 0.00 | 0.00 | 0.00 | 70 | 1011.9 |
| 20260509001003 | 19 | 182 | 3.2 | 11.3 | 0.00 | 0.00 | 0.00 | 69 | 1011.9 |
| 20260509000502 | 19 | 207 | 1.6 | 11.3 | 0.00 | 0.00 | 0.00 | 69 | 1012.0 |
| 20260509000008 | 20 | 193 | 4.8 | 11.3 | 0.00 | 0.00 | 0.00 | 67 | 1012.0 |
| 20260508235504 | 20 | 171 | 3.2 | 8.0 | 0.00 | 0.00 | 0.00 | 67 | 1012.3 |
| 20260508235007 | 20 | 207 | 4.8 | 9.7 | 0.00 | 0.00 | 0.00 | 67 | 1012.3 |
| 20260508234510 | 20 | 214 | 1.6 | 9.7 | 0.00 | 0.00 | 0.00 | 67 | 1012.4 |
| 20260508234007 | 20 | 211 | 3.2 | 11.3 | 0.00 | 0.00 | 0.00 | 66 | 1012.5 |
| 20260508233503 | 20 | 188 | 4.8 | 12.9 | 0.00 | 0.00 | 0.00 | 66 | 1012.5 |
| 20260508233008 | 20 | 185 | 3.2 | 17.7 | 0.00 | 0.00 | 0.00 | 65 | 1012.5 |
| 20260508232506 | 20 | 209 | 3.2 | 17.7 | 0.00 | 0.00 | 0.00 | 65 | 1012.6 |
| 20260508232006 | 20 | 140 | 4.8 | 16.1 | 0.00 | 0.00 | 0.00 | 64 | 1012.5 |
| 20260508231509 | 20 | 197 | 9.7 | 16.1 | 0.00 | 0.00 | 0.00 | 63 | 1012.4 |
| 20260508231008 | 20 | 172 | 6.4 | 14.5 | 0.00 | 0.00 | 0.00 | 63 | 1012.5 |
| 20260508230504 | 20 | 187 | 4.8 | 22.5 | 0.00 | 0.00 | 0.00 | 62 | 1012.5 |
| 20260508230032 | 21 | 217 | 8.0 | 22.5 | 0.00 | 0.00 | 0.00 | 61 | 1012.4 |
| 20260508225503 | 21 | 184 | 9.7 | 20.9 | 0.00 | 0.00 | 0.00 | 62 | 1012.4 |
| 20260508225005 | 21 | 214 | 11.3 | 16.1 | 0.00 | 0.00 | 0.00 | 60 | 1012.5 |
| 20260508224506 | 21 | 189 | 6.4 | 16.1 | 0.00 | 0.00 | 0.00 | 60 | 1012.6 |
| 20260508224005 | 21 | 207 | 8.0 | 14.5 | 0.00 | 0.00 | 0.00 | 65 | 1012.5 |
| 20260508223507 | 21 | 185 | 4.8 | 14.5 | 0.00 | 0.00 | 0.00 | 65 | 1012.4 |
| 20260508223011 | 21 | 196 | 4.8 | 14.5 | 0.00 | 0.00 | 0.00 | 65 | 1012.5 |
| 20260508222507 | 21 | 156 | 4.8 | 12.9 | 0.00 | 0.00 | 0.00 | 64 | 1012.5 |
| 20260508222006 | 21 | 197 | 3.2 | 12.9 | 0.00 | 0.00 | 0.00 | 64 | 1012.5 |
| 20260508221514 | 21 | 194 | 3.2 | 11.3 | 0.00 | 0.00 | 0.00 | 64 | 1012.4 |
| 20260508221008 | 21 | 205 | 3.2 | 11.3 | 0.00 | 0.00 | 0.00 | 65 | 1012.4 |
| 20260508220505 | 21 | 157 | 4.8 | 9.7 | 0.00 | 0.00 | 0.00 | 66 | 1012.4 |
| 20260508220016 | 21 | 148 | 4.8 | 12.9 | 0.00 | 0.00 | 0.00 | 63 | 1012.4 |
| 20260508215509 | 21 | 203 | 3.2 | 14.5 | 0.00 | 0.00 | 0.00 | 64 | 1012.5 |
| 20260508215004 | 21 | 188 | 4.8 | 14.5 | 0.00 | 0.00 | 0.00 | 64 | 1012.6 |
| 20260508214514 | 21 | 163 | 6.4 | 17.7 | 0.00 | 0.00 | 0.00 | 65 | 1012.7 |
| 20260508214005 | 21 | 155 | 8.0 | 17.7 | 0.00 | 0.00 | 0.00 | 64 | 1012.7 |
| 20260508213508 | 21 | 159 | 9.7 | 17.7 | 0.00 | 0.00 | 0.00 | 64 | 1012.7 |
| 20260508213012 | 21 | 202 | 6.4 | 16.1 | 0.00 | 0.00 | 0.00 | 64 | 1012.9 |
| 20260508212504 | 21 | 171 | 6.4 | 14.5 | 0.00 | 0.00 | 0.00 | 61 | 1013.0 |
| 20260508212013 | 21 | 225 | 4.8 | 20.9 | 0.00 | 0.00 | 0.00 | 62 | 1013.2 |
| 20260508211516 | 21 | 191 | 9.7 | 20.9 | 0.00 | 0.00 | 0.00 | 62 | 1013.2 |
| 20260508211004 | 21 | 190 | 11.3 | 16.1 | 0.00 | 0.00 | 0.00 | 59 | 1013.2 |
| 20260508210506 | 21 | 217 | 6.4 | 17.7 | 0.00 | 0.00 | 0.00 | 57 | 1013.2 |
| 20260508210012 | 22 | 168 | 6.4 | 19.3 | 0.00 | 0.00 | 0.00 | 60 | 1013.2 |
| 20260508205507 | 22 | 194 | 9.7 | 19.3 | 0.00 | 0.00 | 0.00 | 61 | 1013.1 |
| 20260508205007 | 22 | 222 | 6.4 | 14.5 | 0.00 | 0.00 | 0.00 | 58 | 1013.0 |
| 20260508204506 | 22 | 199 | 6.4 | 16.1 | 0.00 | 0.00 | 0.00 | 61 | 1013.1 |
| 20260508204006 | 22 | 205 | 9.7 | 16.1 | 0.00 | 0.00 | 0.00 | 58 | 1013.3 |
| 20260508203505 | 22 | 189 | 6.4 | 17.7 | 0.00 | 0.00 | 0.00 | 60 | 1013.3 |
| 20260508203017 | 22 | 212 | 9.7 | 17.7 | 0.00 | 0.00 | 0.00 | 56 | 1013.4 |
| 20260508202510 | 22 | 133 | 9.7 | 17.7 | 0.00 | 0.00 | 0.00 | 57 | 1013.5 |
| 20260508202006 | 22 | 196 | 6.4 | 16.1 | 0.00 | 0.00 | 0.00 | 56 | 1013.5 |
| 20260508201515 | 22 | 158 | 6.4 | 16.1 | 0.00 | 0.00 | 0.00 | 57 | 1013.5 |
| 20260508201007 | 22 | 164 | 4.8 | 16.1 | 0.00 | 0.00 | 0.00 | 56 | 1013.5 |
| 20260508200503 | 22 | 197 | 9.7 | 16.1 | 0.00 | 0.00 | 0.00 | 58 | 1013.7 |
| 20260508200017 | 22 | 219 | 4.8 | 20.9 | 0.00 | 0.00 | 0.00 | 55 | 1013.8 |
| 20260508195504 | 22 | 141 | 11.3 | 20.9 | 0.00 | 0.00 | 0.00 | 56 | 1013.9 |
| 20260508195013 | 22 | 145 | 11.3 | 20.9 | 0.00 | 0.00 | 0.00 | 57 | 1013.9 |
| 20260508194517 | 22 | 194 | 6.4 | 16.1 | 0.00 | 0.00 | 0.00 | 61 | 1013.9 |
| 20260508194004 | 22 | 211 | 8.0 | 16.1 | 0.00 | 0.00 | 0.00 | 61 | 1014.0 |
| 20260508193507 | 22 | 153 | 9.7 | 14.5 | 0.00 | 0.00 | 0.00 | 59 | 1014.0 |
| 20260508193014 | 22 | 205 | 4.8 | 14.5 | 0.00 | 0.00 | 0.00 | 59 | 1014.0 |
| 20260508192506 | 22 | 144 | 6.4 | 14.5 | 0.00 | 0.00 | 0.00 | 57 | 1013.9 |
| 20260508192008 | 22 | 205 | 6.4 | 14.5 | 0.00 | 0.00 | 0.00 | 58 | 1014.0 |
| 20260508191516 | 22 | 64 | 4.8 | 12.9 | 0.00 | 0.00 | 0.00 | 61 | 1014.1 |
| 20260508191008 | 22 | 116 | 4.8 | 11.3 | 0.00 | 0.00 | 0.00 | 60 | 1014.1 |
| 20260508190508 | 21 | 171 | 1.6 | 16.1 | 0.00 | 0.00 | 0.00 | 58 | 1014.3 |
| 20260508190008 | 21 | 168 | 6.4 | 16.1 | 0.00 | 0.00 | 0.00 | 58 | 1014.3 |
| 20260508185508 | 21 | 138 | 1.6 | 17.7 | 0.00 | 0.00 | 0.00 | 56 | 1014.4 |
| 20260508185012 | 21 | 180 | 6.4 | 17.7 | 0.00 | 0.00 | 0.00 | 56 | 1014.3 |
| 20260508184535 | 21 | 147 | 9.7 | 16.1 | 0.00 | 0.00 | 0.00 | 56 | 1014.5 |
| 20260508184009 | 21 | 213 | 6.4 | 14.5 | 0.00 | 0.00 | 0.00 | 57 | 1014.6 |